World > North America > United States > Texas

Hourly Doak Springs, TX Regional Weather

Feedback E-mail the Weather

Quick WX

Doak Springs, TX Weather Maps

°F °C°F °C
Doak Springs Weather Map
UTC Time: 7/3/2022, 11:09
Your Time:

Doak Springs, TX Regional Weather

Expires:202207031200;;604867
ASUS44 KSJT 031102
RWRSJT
WEST CENTRAL TEXAS REGIONAL WEATHER ROUNDUP
NATIONAL WEATHER SERVICE SAN ANGELO TX
600 AM CDT SUN JUL 03 2022

NOTE: "FAIR" INDICATES FEW OR NO CLOUDS BELOW 12,000 FEET WITH NO
SIGNIFICANT WEATHER AND/OR OBSTRUCTIONS TO VISIBILITY.


TXZ145-158-159-173-191-192-194-205-207-220-223-031200-
CENTRAL AND SOUTH CENTRAL TEXAS
  
CITY           SKY/WX    TMP DP  RH WIND       PRES   REMARKS
AUSTIN/BERGSTM PTCLDY    77  75  93 S5        29.99R                  
WACO           PTCLDY    81  73  76 S15       29.98S                  
HILLSBORO      MOSUNNY   81  74  81 S13       29.98S                  
TEMPLE         CLEAR     78  74  87 S9        30.00R                  
KILLEEN-GRAY   CLEAR     78  71  81 S9        29.96S                  
FORT HOOD      CLEAR     78  72  81 S7        29.99R                  
GEORGETOWN     PTCLDY    80  73  79 S6        30.02R                  
LAGO VISTA     FAIR      77  72  83 S7        30.02R                  
SAN MARCOS     MOCLDY    78  77  96 S5        30.01R                  
NEW BRAUNFELS  MOCLDY    79  74  84 SW7       29.99R                  
RANDOLPH AFB   CLOUDY    78  75  91 S5        29.98R                  
SAN ANTONIO    CLOUDY    80  72  76 S7        30.00R                  
STINSON          N/A     78  75  90 CALM      29.98R                  
PLEASANTON     NOT AVBL                                               
LA GRANGE      NOT AVBL                                               
GIDDINGS       SUNNY     76  75  94 CALM      30.00S                  
$$


SKY/WX - Weather  TMP - Temperature  DP - Dew Point  RH - Humidity
WIND - Wind Direction/Speed PRES - Barometric Pressure VSB - Visibility
WCI - Wind Chill Index E13G22 Wind - East Wind 13 mph/Gusts of 22 mph

Trending Headlines

Doak Springs Radar Loop



Doak Springs Quick Facts


National Two Day Weather Forecast


E-mail the Doak Springs Weather Forecast

Voice your opinion or tell us about page issues...